Gene Autry, OK

7:53 PM CDT on August 24, 2016 (GMT -0500)
Ardmore Municipal

Weather History for KADM - August, 2013

Change the Weather History Date:

Tuesday, August 13, 2013

  Actual Average Record
Temperature  
Mean Temperature 80 °F -  
Max Temperature 89 °F 92 °F 104 °F (2010)
Min Temperature 74 °F 70 °F 62 °F (2004)
Cooling Degree Days 16    
Growing Degree Days 30 (Base 50)    
Moisture  
Dew Point 74 °F    
Average Humidity 92    
Maximum Humidity 100    
Minimum Humidity 58    
Precipitation  
Precipitation 0.12 in - - ()
Sea Level Pressure  
Sea Level Pressure 29.97 in    
Wind  
Wind Speed 3 mph (NE)    
Max Wind Speed 9 mph    
Max Gust Speed -    
Visibility 9 miles    
Events Rain , Thunderstorm    
Averages and records for this station are not official NWS values.
T = Trace of Precipitation, MM = Missing Value Source: NWS Daily Summary

Daily Weather History Graph

Daily Weather History Graph

Search for Another Location

Airport or City:

Trip Planner

Search our weather history database for the weather conditions in past years. The results will help you decide how hot, cold, wet, or windy it might be!

Date:

Astronomy

Aug. 13, 2013 Rise Set
Actual Time 6:47 AM CDT 8:17 PM CDT
Civil Twilight 6:21 AM CDT 8:43 PM CDT
Nautical Twilight 5:49 AM CDT 9:15 PM CDT
Astronomical Twilight 5:15 AM CDT 9:49 PM CDT
Moon 1:23 PM CDT (8/13) No Moon Set
Length of Visible Light 14h 22m
Length of Day
13h 29m
Waxing Crescent, 42% of the Moon is Illuminated
Aug 13
Waxing Crescent
Aug 14
First Quarter
Aug 20
Full
Aug 28
Last Quarter
Sep 5
New

Hourly Weather History & Observations

Time (CDT) Temp. Heat Index Dew Point Humidity Pressure Visibility Wind Dir Wind Speed Gust Speed Precip Events Conditions
12:15 AM 76.6 °F - 74.7 °F 94% 29.96 in 10.0 mi Calm Calm - N/A Rain Light Rain
12:35 AM 76.1 °F - 74.8 °F 96% 29.96 in 10.0 mi Calm Calm - N/A Thunderstorm Clear
12:55 AM 76.1 °F - 75.2 °F 97% 29.98 in 10.0 mi NW 6.9 mph - N/A   Clear
1:15 AM 77.0 °F - 74.7 °F 92% 29.99 in 10.0 mi NNW 5.8 mph - N/A Thunderstorm Scattered Clouds
1:35 AM 78.1 °F - 74.1 °F 88% 29.99 in 10.0 mi NNW 8.1 mph - N/A Thunderstorm Mostly Cloudy
1:55 AM 77.9 °F - 74.3 °F 89% 29.99 in 7.0 mi North 4.6 mph - 0.01 in Rain Rain
2:15 AM 76.1 °F - 74.8 °F 96% 29.99 in 7.0 mi Calm Calm - 0.10 in Rain Light Rain
2:35 AM 76.3 °F - 75.0 °F 96% 29.97 in 10.0 mi SE 4.6 mph - 0.10 in Rain Light Rain
2:55 AM 75.7 °F - 75.4 °F 99% 29.96 in 5.0 mi Calm Calm - 0.10 in Rain Rain
3:15 AM 75.6 °F - 75.2 °F 99% 29.94 in 7.0 mi Calm Calm - 0.01 in   Mostly Cloudy
3:35 AM 75.4 °F - 75.2 °F 99% 29.95 in 7.0 mi Calm Calm - 0.01 in   Clear
3:55 AM 75.2 °F - 75.2 °F 100% 29.94 in 5.0 mi ENE 3.5 mph - 0.01 in   Clear
4:15 AM 75.4 °F - 75.2 °F 99% 29.94 in 5.0 mi East 3.5 mph - N/A   Clear
4:35 AM 75.4 °F - 75.2 °F 99% 29.94 in 7.0 mi East 3.5 mph - N/A   Clear
4:55 AM 75.4 °F - 75.2 °F 99% 29.93 in 7.0 mi East 3.5 mph - N/A   Clear
5:15 AM 75.4 °F - 75.2 °F 99% 29.93 in 7.0 mi Calm Calm - N/A   Clear
5:35 AM 75.2 °F - 75.2 °F 100% 29.95 in 7.0 mi Calm Calm - N/A   Clear
5:55 AM 75.6 °F - 74.7 °F 97% 29.95 in 10.0 mi East 3.5 mph - N/A   Clear
6:15 AM 75.2 °F - 74.3 °F 97% 29.96 in 10.0 mi Calm Calm - N/A   Clear
6:35 AM 75.2 °F - 74.3 °F 97% 29.97 in 10.0 mi Calm Calm - N/A Thunderstorm Clear
7:55 AM 75.2 °F - 75.2 °F 100% 30.01 in 10.0 mi NNE 5.8 mph - N/A   Overcast
8:55 AM 75.2 °F - 73.4 °F 94% 30.03 in 10.0 mi NE 9.2 mph - N/A   Overcast
9:55 AM 78.8 °F - 73.4 °F 83% 30.03 in 10.0 mi East 8.1 mph - N/A   Mostly Cloudy
3:55 PM 87.8 °F 93.8 °F 71.6 °F 58% 29.97 in 10.0 mi North 5.8 mph - N/A   Clear
4:55 PM 86.0 °F 91.8 °F 71.6 °F 62% 29.95 in 10.0 mi North 9.2 mph - N/A   Clear
6:55 PM 84.2 °F 89.6 °F 71.6 °F 66% 29.96 in 10.0 mi North 9.2 mph - N/A   Mostly Cloudy
11:35 PM 74.7 °F - 72.7 °F 94% 30.02 in 10.0 mi NNE 4.6 mph - N/A   Clear
11:55 PM 74.5 °F - 72.9 °F 95% 30.02 in 10.0 mi North 3.5 mph - N/A   Clear